This is the latest recevied weather packets stored in our database for station/object KC3WWU. If no packets are shown the sender has not sent any weather packets the latest 1 day(s).
| Time | Temp. | Humidity | Pressure | Rain* | Wind** | Luminosity | Snow |
|---|---|---|---|---|---|---|---|
| 1778044841 | 17.22° C | 59% | 1006.6 hPa | 0 mm | 0.45 m/s, 53° | 0 W/m² | - |
| 1778044538 | 17.22° C | 62% | 1006.9 hPa | 0 mm | 0.89 m/s, 35° | 0 W/m² | - |
| 1778044234 | 16.67° C | 62% | 1006.8 hPa | 0 mm | 0.89 m/s, 23° | 0 W/m² | - |
| 1778043932 | 17.22° C | 62% | 1006.6 hPa | 0 mm | 0.89 m/s, 326° | 0 W/m² | - |
| 1778043630 | 16.67° C | 62% | 1006.7 hPa | 0 mm | 0.45 m/s, 39° | 0 W/m² | - |
| 1778043326 | 16.67° C | 62% | 1007 hPa | 0 mm | 0.89 m/s, 37° | 0 W/m² | - |
| 1778043023 | 16.67° C | 64% | 1006.7 hPa | 0 mm | 0.45 m/s, 39° | 0 W/m² | - |
| 1778042721 | 16.67° C | 64% | 1006.8 hPa | 0 mm | 0.89 m/s, 42° | 0 W/m² | - |
| 1778042417 | 16.11° C | 64% | 1006.7 hPa | 0 mm | 0.89 m/s, 173° | 0 W/m² | - |
| 1778042114 | 16.11° C | 70% | 1006.9 hPa | 0 mm | 0 m/s | 0 W/m² | - |
| 1778041813 | 16.67° C | 65% | 1006.4 hPa | 0 mm | 0 m/s | 0 W/m² | - |
| 1778041512 | 16.67° C | 66% | 1006.8 hPa | 0 mm | 0 m/s | 0 W/m² | - |
| 1778041209 | 16.67° C | 64% | 1006.6 hPa | 0 mm | 0.89 m/s, 26° | 0 W/m² | - |
| 1778040908 | 16.11° C | 67% | 1006.7 hPa | 0 mm | 0 m/s | 0 W/m² | - |
| 1778040604 | 15.56° C | 65% | 1006.7 hPa | 0 mm | 0.45 m/s, 69° | 0 W/m² | - |
| 1778040302 | 15° C | 70% | 1006.7 hPa | 0 mm | 0.45 m/s, 41° | 0 W/m² | - |
| 1778039997 | 15° C | 76% | 1006.8 hPa | 0 mm | 0 m/s | 0 W/m² | - |
| 1778039695 | 15° C | 74% | 1006.8 hPa | 0 mm | 0 m/s | 0 W/m² | - |
| 1778039391 | 14.44° C | 77% | 1006.7 hPa | 0 mm | 0 m/s | 0 W/m² | - |
| 1778039089 | 15° C | 76% | 1006.7 hPa | 0 mm | 0 m/s | 0 W/m² | - |
| 1778038786 | 14.44° C | 76% | 1007 hPa | 0 mm | 0 m/s | 0 W/m² | - |
| 1778038483 | 14.44° C | 77% | 1006.7 hPa | 0 mm | 0 m/s | 0 W/m² | - |
| 1778038179 | 14.44° C | 77% | 1006.9 hPa | 0 mm | 0 m/s | 0 W/m² | - |
| 1778037877 | 13.89° C | 79% | 1006.9 hPa | 0 mm | 0 m/s | 0 W/m² | - |
| 1778037573 | 13.89° C | 80% | 1006.9 hPa | 0 mm | 0 m/s | 0 W/m² | - |
* Rain latest hour (hover to see other rain measurements)
** Current wind speed in m/s (hover to see current wind gust speed)